Tracking 23752 objects as of 24-Oct-2021
HD Live streaming from Space Station
objects crossing your sky now

SL-14 DEB

Track SL-14 DEB now!
10-day predictions


NORAD ID: 45289
Int'l Code: 1991-056AB
Perigee: 1,205.9 km
Apogee: 1,470.5 km
Inclination: 82.5 °
Period: 112.3 minutes
Semi major axis: 7709 km
RCS: Unknown
Launch date: August 15, 1991
Source: Commonwealth of Independent States (former USSR) (CIS)
Launch site: PLESETSK MISSILE AND SPACE COMPLEX (PKMTR)

Note: This is SATELLITE DEBRIS
aabbcc
Your satellite tracking list
Your tracking list is empty




NASA's NSSDC Master Catalog

Two Line Element Set (TLE):
1 45289U 91056AB  21297.01886097  .00000056  00000-0  18555-3 0  9997
2 45289  82.5328 283.0365 0171588 248.9979 109.2694 12.82589045 78654
Source of the keplerian elements: AFSPC